TimeCST,TemperatureF,Dew PointF,Humidity,Sea Level PressureIn,VisibilityMPH,Wind Direction,Wind SpeedMPH,Gust SpeedMPH,PrecipitationIn,Events,Conditions,WindDirDegrees,DateUTC
12:53 AM,10.0,3.9,76,30.11,10.0,ENE,6.9,-,N/A,,Overcast,60,2012-12-08 06:53:00
1:53 AM,10.9,3.9,73,30.09,10.0,ENE,5.8,-,N/A,,Overcast,70,2012-12-08 07:53:00
2:53 AM,12.0,5.0,73,30.07,10.0,ENE,6.9,-,N/A,,Overcast,70,2012-12-08 08:53:00
3:53 AM,12.9,7.0,77,30.05,10.0,ENE,8.1,-,0.00,Snow,Light Snow,70,2012-12-08 09:53:00
4:53 AM,15.8,8.6,73,29.97,9.0,East,9.2,-,N/A,Snow,Light Snow,80,2012-12-08 10:53:00
5:36 AM,15.8,10.4,79,29.96,6.0,East,8.1,-,0.01,Snow,Light Snow,80,2012-12-08 11:36:00
5:53 AM,16.0,10.0,77,30.01,9.0,ESE,9.2,-,0.01,,Overcast,110,2012-12-08 11:53:00
6:06 AM,15.8,10.4,79,29.95,10.0,East,8.1,-,N/A,,Overcast,100,2012-12-08 12:06:00
6:53 AM,17.1,10.9,77,29.99,6.0,East,8.1,-,0.00,Snow,Light Snow,90,2012-12-08 12:53:00
7:03 AM,17.6,12.2,79,29.94,1.8,East,6.9,-,0.00,Snow,Light Snow,100,2012-12-08 13:03:00
7:15 AM,17.6,12.2,79,29.93,1.8,East,5.8,-,0.01,Snow,Light Snow,100,2012-12-08 13:15:00
7:17 AM,17.6,12.2,79,29.93,2.0,East,5.8,-,0.01,Snow,Light Snow,100,2012-12-08 13:17:00
7:53 AM,17.1,14.0,88,29.99,3.0,East,5.8,-,0.02,Snow,Light Snow,100,2012-12-08 13:53:00
8:24 AM,17.6,14.0,86,29.93,2.0,East,4.6,-,0.00,Snow,Light Snow,90,2012-12-08 14:24:00
8:31 AM,17.6,15.8,93,29.93,3.0,East,4.6,-,0.00,Snow,Light Snow,90,2012-12-08 14:31:00
8:44 AM,17.6,15.8,93,29.93,2.5,East,3.5,-,0.00,Snow,Light Snow,90,2012-12-08 14:44:00
8:53 AM,19.0,15.1,85,29.99,2.5,East,4.6,-,0.00,Snow,Light Snow,100,2012-12-08 14:53:00
9:02 AM,19.4,15.8,86,29.93,2.0,East,3.5,-,0.00,Snow,Light Snow,90,2012-12-08 15:02:00
9:18 AM,19.4,15.8,86,29.93,1.8,Calm,Calm,-,0.00,Snow,Light Snow,0,2012-12-08 15:18:00
9:27 AM,19.4,15.8,86,29.93,2.0,East,3.5,-,0.01,Snow,Light Snow,100,2012-12-08 15:27:00
9:53 AM,21.0,17.1,85,29.99,1.5,Calm,Calm,-,0.01,Snow,Light Snow,0,2012-12-08 15:53:00
10:17 AM,21.2,17.6,86,29.94,2.0,NNE,4.6,-,0.00,Snow,Light Snow,20,2012-12-08 16:17:00
10:53 AM,21.0,17.1,85,30.00,2.0,North,4.6,-,0.01,Snow,Light Snow,10,2012-12-08 16:53:00
11:45 AM,21.2,17.6,86,29.93,10.0,North,6.9,-,0.00,,Overcast,360,2012-12-08 17:45:00
11:53 AM,19.9,17.1,89,29.99,10.0,North,8.1,-,0.00,,Overcast,10,2012-12-08 17:53:00
12:53 PM,19.9,16.0,85,29.98,9.0,North,9.2,-,0.00,,Overcast,350,2012-12-08 18:53:00
1:53 PM,19.0,15.1,85,29.98,10.0,NNW,11.5,-,N/A,,Overcast,330,2012-12-08 19:53:00
2:53 PM,17.1,12.9,84,29.98,9.0,NNW,13.8,-,0.00,Snow,Light Snow,340,2012-12-08 20:53:00
3:41 PM,15.8,12.2,86,29.94,2.5,North,17.3,-,0.00,Snow,Light Snow,350,2012-12-08 21:41:00
3:53 PM,16.0,12.0,84,30.01,3.0,North,13.8,-,0.01,Snow,Light Snow,360,2012-12-08 21:53:00
4:02 PM,15.8,12.2,86,29.95,2.0,North,12.7,-,0.00,Snow,Light Snow,10,2012-12-08 22:02:00
4:53 PM,16.0,12.0,84,30.03,3.0,North,16.1,-,0.02,Snow,Light Snow,360,2012-12-08 22:53:00
5:53 PM,14.0,10.0,84,30.06,3.0,North,17.3,-,0.01,Snow,Light Snow,350,2012-12-08 23:53:00
6:53 PM,14.0,10.0,84,30.08,3.0,North,15.0,-,0.00,,Overcast,350,2012-12-09 00:53:00
7:53 PM,14.0,10.0,84,30.09,7.0,North,15.0,-,0.00,Snow,Light Snow,350,2012-12-09 01:53:00
8:32 PM,14.0,10.4,86,30.05,2.5,North,15.0,-,0.00,Snow,Light Snow,360,2012-12-09 02:32:00
8:53 PM,14.0,10.0,84,30.11,2.5,North,19.6,-,0.00,Snow,Light Snow,360,2012-12-09 02:53:00
9:38 PM,12.2,8.6,85,30.07,1.5,North,16.1,-,0.01,Snow,Light Snow,360,2012-12-09 03:38:00
9:53 PM,12.9,9.0,84,30.14,1.5,North,18.4,-,0.01,Snow,Light Snow,360,2012-12-09 03:53:00
9:57 PM,12.2,8.6,85,30.08,2.5,North,18.4,-,0.00,Snow,Light Snow,360,2012-12-09 03:57:00
10:53 PM,10.9,7.0,84,30.16,2.5,North,18.4,-,0.00,Snow,Light Snow,350,2012-12-09 04:53:00
11:53 PM,8.1,3.9,83,30.20,2.5,North,19.6,-,0.00,Snow,Light Snow,350,2012-12-09 05:53:00